This is the latest recevied weather packets stored in our database for station/object RODN. If no packets are shown the sender has not sent any weather packets the latest 1 day(s).
| Time | Temp. | Humidity | Pressure | Rain* | Wind** | Luminosity | Snow |
|---|---|---|---|---|---|---|---|
| 1778015627 | - | - | 1024.7 hPa | - | 2.68 m/s, 50° | - | - |
| 1778015027 | - | - | 1024.4 hPa | - | 2.68 m/s, 50° | - | - |
| 1778014425 | 20.56° C | 100% | 1024.4 hPa | - | 2.68 m/s, 70° | - | - |
| 1778013829 | 20.56° C | 100% | 1024.4 hPa | - | 2.68 m/s, 70° | - | - |
| 1778013227 | 20.56° C | 94% | 1013.5 hPa | - | 3.58 m/s, 60° | - | - |
| 1778012632 | 20.56° C | 94% | 1013.5 hPa | - | 3.58 m/s, 60° | - | - |
| 1778012026 | 20.56° C | 100% | 1014.2 hPa | - | 2.68 m/s, 30° | - | - |
| 1778011425 | 20.56° C | 100% | 1014.2 hPa | - | 2.68 m/s, 30° | - | - |
| 1778010828 | 20.56° C | 94% | 1014.2 hPa | - | 2.24 m/s, 360° | - | - |
| 1778010229 | 20.56° C | 94% | 1014.2 hPa | - | 2.24 m/s, 360° | - | - |
| 1778009625 | 20.56° C | 94% | 1014.6 hPa | - | 1.34 m/s, 330° | - | - |
| 1778009028 | 20.56° C | 94% | 1014.6 hPa | - | 1.34 m/s, 330° | - | - |
| 1778008427 | 20.56° C | 94% | 1014.6 hPa | - | 1.79 m/s, 40° | - | - |
| 1778007830 | 20.56° C | 94% | 1014.6 hPa | - | 1.79 m/s, 40° | - | - |
| 1778007230 | 20.56° C | 94% | 1014.6 hPa | - | 1.79 m/s, 20° | - | - |
| 1778006628 | 21.67° C | 88% | 1014.2 hPa | - | 2.24 m/s, 40° | - | - |
| 1778006031 | 21.67° C | 88% | 1014.2 hPa | - | 2.24 m/s, 40° | - | - |
| 1778005429 | 21.67° C | 88% | 1013.9 hPa | - | 2.68 m/s, 40° | - | - |
| 1778004826 | 20.56° C | 94% | 1013.9 hPa | - | 4.02 m/s, 80° | - | - |
| 1778004229 | 20.56° C | 94% | 1013.9 hPa | - | 4.02 m/s, 80° | - | - |
| 1778003627 | 20.56° C | 94% | 1014.2 hPa | - | 2.68 m/s, 80° | - | - |
| 1778003023 | 20.56° C | 94% | 1014.2 hPa | - | 2.68 m/s, 80° | - | - |
| 1778002426 | 20.56° C | 94% | 1014.2 hPa | - | 2.68 m/s, 80° | - | - |
| 1778001825 | 20.56° C | 94% | 1014.2 hPa | - | 2.68 m/s, 80° | - | - |
| 1778001231 | 20.56° C | 94% | 1014.2 hPa | - | 2.68 m/s, 80° | - | - |
* Rain since midnight (hover to see other rain measurements)
** Current wind speed in m/s (hover to see current wind gust speed)